www.pogodaiklimat.ru

Погода и климат >> Архив погоды >> Мексика >> Altar Son


ПОГОДА в Altar Son

  • Прогноз погоды в Altar Son
  • Монитор погоды в Altar Son
  • Климат города

АРХИВ ПОГОДЫ в Altar Son

Время (UTC), дата Ветер
(напр.,м/с)
 
Видим.   Явления Облачность Т
(С)
Тd
(С)
f
(%)
Тe
(С)
Тes
(С)
Комфортность P
(гПа)
Po
(гПа)
Тmin
(С)
Tmax
(С)
R
(мм)
R24
(мм)
S
(см)
15 16.06 СВ 1 30 км ясно +21.0 +10.2 50 +24 +31 комфорт 1009.0 963.2
18 16.06 ЮВ 1 30 км ясно +36.2 +12.5 24 +36 +59 опасность
солнечного
удара
1008.0 962.5 +17.0 +36.5
21 16.06 Ю 1 30 км ясно +41.0 +18.4 27 +38 +61 опасность
солнечного
удара
1007.0 962.0
00 17.06 ЮЗ 1 30 км ясно +43.0 +22.3 31 +51 +57 опасность
перегрева
1006.0 961.2 +17.0 +43.5
03 17.06 С 1 20 км ясно +30.0 +18.4 50 +35 +35 очень
душно
1005.0 960.8
15 17.06 В 1 30 км ясно +22.2 +9.0 43 +24 +31 комфорт 1007.4 962.0
18 17.06 Ю 1 30 км ясно +37.0 +22.9 44 +46 +69 опасность
перегрева
1006.5 961.3 +18.0 +37.5
21 17.06 ЮЗ 1 30 км ясно +41.0 +26.6 45 +38 +61 опасность
солнечного
удара
1006.0 961.0
00 18.06 З 1 30 км ясно +43.0 +22.3 31 +51 +57 опасность
перегрева
1005.0 960.0 +18.0 +34.5
03 18.06 СВ 1 20 км ясно +36.2 +12.5 24 +36 +36 очень
жарко
1004.0 959.0
15 18.06 В 1 30 км ясно +21.0 +10.2 50 +24 +31 комфорт 1008.0 962.0
18 18.06 Ю 1 30 км ясно +38.0 +18.8 33 +42 +65 опасность
перегрева
1007.0 961.3 +18.0 +38.5
21 18.06 ЮЗ 1 30 км ясно +41.0 +6.1 12 +38 +61 опасность
солнечного
удара
1006.0 960.1
00 19.06 З 1 30 км ясно +43.0 +22.3 31 +51 +57 опасность
перегрева
1004.5 958.1 +18.0 +43.5
12 19.06 СВ 1 20 км ясно +22.4 +8.9 42 +24 +24 комфорт 1001.1 959.0 +22.2 +44.0
15 19.06 СВ 1 30 км ясно +24.0 +6.0 31 +24 +31 комфорт 1004.9 960.4
18 19.06 ЮЗ 1 30 км ясно +39.0 +8.3 16 +37 +60 опасность
солнечного
удара
1003.9 960.1 +21.8 +39.2
21 19.06 З 2 30 км ясно +44.8 +11.1 14 +44 +63 опасность
перегрева
1001.2 958.2
00 20.06 З 4 30 км ясно +44.2 +9.9 13 +43 +46 опасность
перегрева
999.4 956.8 +21.8 +46.2
03 20.06 З 2 20 км ясно +37.6 +1.5 10 +34 +34 очень
жарко
1000.4 957.8
12 20.06 СВ 1 20 км ясно +26.0 +2.1 21 +25 +25 комфорт 1012.3 968.3 +25.8 +46.2
15 20.06 СВ 1 30 км ясно +28.0 +12.3 38 +29 +36 жарко 1004.3 960.1
18 20.06 Ю 1 30 км 10/0 2000 м
[Ac trans]
+37.6 +9.1 18 +36 +45 очень
жарко
1004.9 961.3 +25.5 +37.8
21 20.06 З 3 30 км ясно +43.0 +9.4 14 +41 +57 опасность
перегрева
1004.0 960.9
00 21.06 Ю 1 30 км ясно +45.0 +11.5 14 +44 +50 опасность
перегрева
999.7 957.1 +25.5 +45.5
03 21.06 З 2 20 км ясно +38.0 +12.1 21 +37 +37 очень
жарко
1000.5 957.9
12 21.06 СВ 1 20 км ясно +26.8 +13.1 43 +29 +29 жарко 1002.8 958.9 +26.6 +45.5
15 21.06 В 1 30 км ясно +29.0 +14.0 40 +31 +38 жарко 1004.4 960.3
18 21.06 ЮЗ 1 30 км ясно +39.8 +15.0 23 +41 +63 опасность
перегрева
1003.3 960.0 +26.4 +40.0
21 21.06 СЗ 2 30 км ясно +44.2 +17.6 22 +47 +66 опасность
перегрева
1000.8 958.0
00 22.06 З 4 30 км ясно +44.6 +14.0 17 +45 +49 опасность
перегрева
997.1 954.7 +26.4 +46.2
03 22.06 З 2 20 км ясно +38.8 +17.4 29 +42 +42 опасность
перегрева
998.8 956.4
12 22.06 СВ 1 20 км ясно +29.0 +16.8 48 +33 +33 очень
душно
1001.6 958.0 +28.8 +46.2
15 22.06 СВ 1 30 км ясно +31.0 +14.8 37 +33 +40 душно 1002.8 959.6
18 22.06 Ю 1 30 км 9/0 2000 м
[Ac trans]
+37.8 +18.8 33 +42 +53 опасность
перегрева
1004.1 960.9 +28.0 +38.5
21 22.06 Ю 2 30 км ясно +40.4 +19.4 30 +45 +64 опасность
перегрева
1003.1 960.2
00 23.06 ЮЗ 3 30 км ясно +40.0 +18.1 28 +43 +48 опасность
перегрева
1001.8 959.1 +28.0 +42.2
03 23.06 ЮЗ 2 20 км ясно +38.0 +18.0 31 +41 +41 опасность
перегрева
1001.8 959.1

 

Местоположение метеостанции Altar Son (Мексика): широта 30.71 долгота -111.84 высота над уровнем моря 397 м.

В архиве по умолчанию представлена погода в Altar Son за последнюю неделю. Архивные данные за месяц целиком и за предыдущие месяцы, начиная с января 2011 года, Вы можете получить, выбрав интересующий диапазон дат из раскрывающегося списка и нажав кнопку "Ввод!".

Внимание! Время в таблицах - всемирное. Для получения местного времени необходимо прибавить поправку, которая в Altar Son равна -8 ч.

Смотрите также архив погоды в соседних городах и на ближайших метеорологических станциях:

Погода в Puerto Penasco (Мексика) (176 км)
Погода в Hermosillo (Мексика) (196 км)
Погода в Hermosillo la Magna (Мексика) (201 км)
Погода в Pilares de Nacoz (Мексика) (210 км)
Погода в San Felipe (Мексика) (285 км)
Погода в Guaymas Upper Air Site (Мексика) (324 км)
Погода в Empalme (Мексика) (326 км)
Погода в Ejido Nuevo Leon (Мексика) (362 км)
Погода в Nueva Casas Grandes (Мексика) (379 км)
Погода в Santa Rosalia (Мексика) (384 км)

Пояснения к столбцам:

Ветер - указаны скорость ветра в м/с - средняя за 10 мин, порывы в срок и между сроками (в фигурных скобках) и направление, откуда дует ветер: С - северный, СВ - северо-восточный, В - восточный, ЮВ - юго-восточный, Ю - южный, ЮЗ - юго-западный, З - западный, СЗ - северо-западный.
Видимость - горизонтальная дальность видимости в метрах или километрах. При видимости от 1 до 10 км при отсутствии осадков обычно наблюдается дымка, при ухудшении видимости до 1 км и менее - туман. В сухую погоду видимость может ухудшаться дымом, пылью или мглою.
Явления - указаны атмосферные явления, наблюдавшиеся в срок или в последний час перед сроком; фигурными скобками обозначены явления, наблюдавшиеся между сроками (за 1-3 часа до срока); квадратными скобками обозначены град или гололедные отложения с указанием их диаметра в мм.
Облачность - указаны через наклонную черту общая и нижняя облачность в баллах и высота нижней границы облаков в метрах; квадратными скобками обозначены формы облаков: Ci - перистые, Cs - перисто-слоистые, Cc - перисто-кучевые, Ac - высококучевые, As - высокослоистые, Sc - слоисто-кучевые, Ns - слоисто-дождевые, Cu - кучевые, Cb - кучево-дождевые. Подробнее классификацию облаков см. в Атласе облаков (PDF).
T - Температура воздуха - температура, измеренная на высоте 2 м над землей.
Td - Температура точки росы - температура, при понижении до которой содержащийся в воздухе водяной пар достигнет насыщения.
f - Относительная влажность воздуха - влажноcть воздуха, измеренная на высоте 2 м над землей.
Te - Эффективная температура - температура, которую ощущает одетый по сезону человек в тени. Характеристика душности погоды. При расчете учитывается влияние влажности воздуха и скорости ветра на теплоощущения человека.
Tes - Эффективная температура на солнце - температура, которую ощущает человек, с поправкой на солнечный нагрев. Характеристика знойности погоды. Зависит от высоты солнца над горизонтом, облачности и скорости ветра. Ночью, в пасмурную погоду, а также при ветре 12 м/с и более поправка равна нулю.
P - Атмосферное давление - приведенное к уровню моря атмосферное давление.
Po - Атмосферное давление - измеренное на уровне метеостанции атмосферное давление.
Tmin - Минимальная температура - минимум температуры воздуха на высоте 2 м над землей.
Tmax - Максимальная температура - максимум температуры воздуха на высоте 2 м над землей.
R - Количество осадков - Количество выпавших осадков за период времени, мм. При наведении курсора мыши на число - период времени, за который выпало указанное количество осадков.
R24 - Количество осадков - Количество выпавших осадков за 24 часа, мм.
S - Снежный покров - Высота снежного покрова, см. При наведении курсора мыши на число - состояние снежного покрова и степень покрытия местности в баллах.